Location: Cabeza Gorda
(40.0667°N, 4.9667°W)
Time: 18:51:35
(UTC+00:00)

Cosmos 1707 Rocket - Pass Details

Date: 15 January 2026
Orbit: 598 x 624 km, 82.5° (Epoch: 10 February)

Event Time Altitude Azimuth Distance (km) Brightness Sun altitude
Rises 07:09:44 0° 346° (NNW) 2,856 6.6 -6.1°
Reaches altitude 10° 07:11:59 10° 341° (NNW) 1,951 5.7 -5.7°
Maximum altitude 07:16:09 50° 267° (W) 772 3.7 -5.0°
Drops below altitude 10° 07:20:19 10° 192° (SSW) 1,948 6.3 -4.2°
Sets 07:22:34 0° 187° (S) 2,851 7.2 -3.8°
